Flag for Switzerland Weather past 2 weeks in Monthey, Valais, Switzerland

Now
65 °F

Overcast.


Feels Like: 65 °F
Forecast: 53 / 69 °F
Wind: 3 mph from Northwest

Location: Aigle

Current Time: Apr 25, 2015 at 6:20:17 PM

Latest Report: Apr 25, 2015 at 5:00 PM


Visibility: 9 mi

Pressure: 29.85 "Hg

Humidity: 57%

Dew point: 50 °F

Location of MontheyLocation

Historic Weather in Monthey — Graph

°F

Monthey temperature yesterday

Maximum temperature yesterday: 70 °F (at 6:00 PM)
Minimum temperature yesterday: 42 °F (at 6:00 AM)
Average temperature yesterday: 57 °F

Past Weeks' High & Low Weather Summary

 TemperatureHumidityPressure
High72 °F (Apr 15, 6:00 PM)98% (Apr 18, 6:00 AM)30.47 "Hg (Apr 18, 6:00 AM)
Low38 °F (Apr 20, 7:00 AM)26% (Apr 15, 6:00 PM)29.84 "Hg (Apr 24, 6:00 PM)
Average55 °F66%30.15 "Hg
* Reported Apr 10 4:00 PM — Apr 25 4:00 PM, Monthey, Weather by CustomWeather, © 2015

Note: Actual official high and low records may vary slightly from our data, if they occured in-between our weather recording intervals... More about our weather records

Advertising

Monthey weather history for previous 24 hours

 ConditionsComfort  
Time TempWeatherWind HumidityBarometerVisibility
4:00 PM
Sat, Apr 25
64 °FMild.6 mph57%29.87 "HgN/A
3:00 PM63 °FMild.3 mph60%29.90 "HgN/A
2:00 PM61 °FOvercast.12 mph66%29.92 "Hg9 mi
1:00 PM62 °FRefreshingly cool.7 mph54%29.91 "HgN/A
12:00 PM62 °FRefreshingly cool.6 mph51%29.91 "HgN/A
11:00 AM59 °FOvercast.8 mph62%29.91 "Hg10 mi
10:00 AM58 °FRefreshingly cool.2 mph55%29.93 "HgN/A
9:00 AM56 °FCool.6 mph67%29.92 "HgN/A
8:00 AM56 °FOvercast.3 mph64%29.92 "Hg11 mi
7:00 AM54 °FCool.7 mph63%29.91 "HgN/A
6:00 AM52 °FCool.3 mph80%29.93 "HgN/A
5:00 AM53 °FPassing clouds.5 mph70%29.92 "Hg11 mi
4:00 AM55 °FCool.5 mph56%29.90 "HgN/A
3:00 AM48 °FCool.5 mph80%29.92 "HgN/A
2:00 AM50 °FCool.3 mph71%29.93 "HgN/A
1:00 AM49 °FCool.3 mph74%29.94 "HgN/A
12:00 AM49 °FCool.3 mph72%29.93 "HgN/A
11:00 PM
Fri, Apr 24
53 °FCool.7 mph62%29.92 "HgN/A
10:00 PM58 °FRefreshingly cool.2 mph50%29.90 "HgN/A
9:00 PM60 °FRefreshingly cool.2 mph43%29.88 "HgN/A
8:00 PM62 °FScattered clouds.2 mph42%29.87 "Hg31 mi
7:00 PM67 °FMild.6 mph33%29.85 "HgN/A
6:00 PM70 °FMild.8 mph31%29.84 "HgN/A
Weather by CustomWeather, © 2015

See weather overviewHow to use our weather pages